Weather History for Ciudad Victoria, Mexico

Change the Weather History Date:

Saturday, March 16, 2013

  Actual Average Record
Temperature  
Mean Temperature 77 °F -  
Max Temperature 92 °F 87 °F 100 °F (2008)
Min Temperature 62 °F 64 °F 46 °F (2006)
Cooling Degree Days 12    
Growing Degree Days 27 (Base 50)    
Moisture  
Dew Point 55 °F    
Average Humidity 52    
Maximum Humidity 91    
Minimum Humidity 27    
Precipitation  
Precipitation 0.02 in - - ()
Sea Level Pressure  
Sea Level Pressure 29.87 in    
Wind  
Wind Speed 7 mph ()    
Max Wind Speed 16 mph    
Max Gust Speed 25 mph    
Visibility 6.5 miles    
Events Rain    
Averages and records for this station are not official NWS values.
T = Trace of Precipitation, MM = Missing Value Source: Averaged Metar Reports

Daily Weather History Graph

Daily Weather History Graph

Search for Another Location

Airport:

Trip Planner

Search our weather history database for the weather conditions in past years. The results will help you decide how hot, cold, wet, or windy it might be!

Date:

Astronomy

Mar. 16, 2013 Rise Set
Actual Time 6:43 AM CST 6:45 PM CST
Civil Twilight 6:20 AM CST 7:08 PM CST
Nautical Twilight 5:54 AM CST 7:34 PM CST
Astronomical Twilight 5:28 AM CST 8:00 PM CST
Moon 9:47 AM CST (3/16) 11:20 PM CST (3/16)
Length of Visible Light 12h 47m
Length of Day
12h 02m
Waxing Crescent, 23% of the Moon is Illuminated
Mar 16
Waxing Crescent
Mar 19
First Quarter
Mar 27
Full
Apr 2
Last Quarter
Apr 10
New

Hourly Weather History & Observations

Time (CST) Temp. Dew Point Humidity Pressure Visibility Wind Dir Wind Speed Gust Speed Precip Events Conditions
2:45 AM 67 °F 59 °F 70% 29.97 in 4 mi North 2.2 mph - -  
5:45 AM 65 °F 57 °F 69% 29.96 in 4 mi Calm Calm - -  
6:15 AM 64.4 °F 55.4 °F 73% 29.95 in 6.0 mi South 10.4 mph 21.9 mph N/A   Mostly Cloudy
6:43 AM 64.4 °F 55.4 °F 73% 29.94 in 6.0 mi South 9.2 mph 20.7 mph N/A   Overcast
7:41 AM 62.6 °F 55.4 °F 77% 29.94 in 8.0 mi SSE 11.5 mph 23.0 mph N/A   Mostly Cloudy
8:40 AM 66.2 °F 53.6 °F 64% 29.95 in 8.0 mi South 11.5 mph 23.0 mph N/A   Mostly Cloudy
8:50 AM 67 °F 61 °F 74% 29.96 in 6 mi North 2.2 mph - -   Scattered Clouds
9:42 AM 73.4 °F 53.6 °F 50% 29.93 in 8.0 mi SSE 8.1 mph 19.6 mph N/A   Scattered Clouds
10:40 AM 75.2 °F 53.6 °F 47% 29.92 in 8.0 mi SSE 10.4 mph 24.2 mph N/A   Scattered Clouds
11:42 AM 80.6 °F 51.8 °F 37% 29.90 in 8.0 mi SSE 13.8 mph 25.3 mph N/A   Scattered Clouds
11:50 AM 81 °F 60 °F 39% 29.92 in 6 mi WNW 2.2 mph - -  
12:43 PM 82.4 °F 48.2 °F 30% 29.85 in 8.0 mi South 11.5 mph 23.0 mph N/A   Scattered Clouds
1:43 PM 80.6 °F 48.2 °F 32% 29.82 in 8.0 mi SSE 11.5 mph - N/A   Scattered Clouds
2:42 PM 82.4 °F 48.2 °F 30% 29.84 in 8.0 mi SSE 11.5 mph 23.0 mph N/A   Mostly Cloudy
2:50 PM 92 °F 64 °F 29% 29.78 in 6 mi East 6.7 mph - -   Clear
3:43 PM 84.2 °F 46.4 °F 27% 29.76 in 8.0 mi SSE 11.5 mph - N/A   Scattered Clouds
4:40 PM 80.6 °F 48.2 °F 32% 29.76 in 6.0 mi SE 12.7 mph - N/A   Mostly Cloudy
5:40 PM 78.8 °F 50.0 °F 36% 29.78 in 6.0 mi South 12.7 mph - N/A   Overcast
5:50 PM 76 °F 64 °F 57% 29.80 in 6 mi SSW 4.5 mph - - Rain Light Drizzle
6:43 PM 78.8 °F 50.0 °F 36% 29.80 in 6.0 mi South 16.1 mph - N/A   Mostly Cloudy
8:45 PM 71 °F 62 °F 65% 29.80 in 4 mi South 4.5 mph - -   Partly Cloudy
11:45 PM 65 °F 63 °F 91% 29.85 in 4 mi Calm Calm - -   Partly Cloudy